| time (UTC) | temp C | wind direction | speed KPH | gust KPH | rain 1hr cm | rain 24hr cm | rain mn cm | humidity % | barometer mb |
| 20260905143557 | 4 | 0 | 0.0 | 0.0 | 0.00 | 0.00 | 0.00 | 91 | 1021.9 |
| 20260905143105 | 3 | 0 | 0.0 | 1.6 | 0.00 | 0.00 | 0.00 | 89 | 1021.8 |
| 20260905142557 | 3 | 0 | 0.0 | 1.6 | 0.00 | 0.00 | 0.00 | 88 | 1021.9 |
| 20260905142100 | 3 | 0 | 0.0 | 1.6 | 0.00 | 0.00 | 0.00 | 87 | 1021.8 |
| 20260905141603 | 3 | 0 | 0.0 | 1.6 | 0.00 | 0.00 | 0.00 | 88 | 1021.9 |
| 20260905141056 | 3 | 0 | 0.0 | 0.0 | 0.00 | 0.00 | 0.00 | 89 | 1021.8 |
| 20260905140556 | 3 | 0 | 0.0 | 1.6 | 0.00 | 0.00 | 0.00 | 88 | 1021.6 |
| 20260905140105 | 2 | 0 | 0.0 | 1.6 | 0.00 | 0.00 | 0.00 | 86 | 1021.6 |
| 20260905135557 | 2 | 170 | 0.0 | 1.6 | 0.00 | 0.00 | 0.00 | 88 | 1021.7 |
| 20260905135056 | 2 | 0 | 0.0 | 1.6 | 0.00 | 0.00 | 0.00 | 88 | 1021.5 |
| 20260905134602 | 2 | 190 | 0.0 | 4.8 | 0.00 | 0.00 | 0.00 | 87 | 1021.5 |
| 20260905134101 | 2 | 0 | 0.0 | 4.8 | 0.00 | 0.00 | 0.00 | 88 | 1021.5 |
| 20260905133557 | 2 | 217 | 0.0 | 4.8 | 0.00 | 0.00 | 0.00 | 87 | 1021.5 |
| 20260905133105 | 2 | 0 | 0.0 | 0.0 | 0.00 | 0.00 | 0.00 | 87 | 1021.4 |
| 20260905132558 | 2 | 0 | 0.0 | 0.0 | 0.00 | 0.00 | 0.00 | 84 | 1021.4 |
| 20260905132057 | 3 | 0 | 0.0 | 0.0 | 0.00 | 0.00 | 0.00 | 86 | 1021.3 |
| 20260905131610 | 3 | 0 | 0.0 | 3.2 | 0.00 | 0.00 | 0.00 | 87 | 1021.3 |
| 20260905131119 | 3 | 0 | 0.0 | 3.2 | 0.00 | 0.00 | 0.00 | 86 | 1021.1 |
| 20260905130559 | 3 | 0 | 0.0 | 3.2 | 0.00 | 0.00 | 0.00 | 86 | 1021.4 |
| 20260905125558 | 3 | 0 | 0.0 | 1.6 | 0.00 | 0.00 | 0.00 | 84 | 1021.5 |
| 20260905125058 | 3 | 0 | 0.0 | 0.0 | 0.00 | 0.00 | 0.00 | 85 | 1021.4 |
| 20260905124605 | 3 | 0 | 0.0 | 3.2 | 0.00 | 0.00 | 0.00 | 85 | 1021.3 |
| 20260905124058 | 3 | 0 | 1.6 | 3.2 | 0.00 | 0.00 | 0.00 | 83 | 1021.0 |
| 20260905123558 | 3 | 0 | 0.0 | 0.0 | 0.00 | 0.00 | 0.00 | 85 | 1021.1 |
| 20260905123110 | 3 | 0 | 0.0 | 1.6 | 0.00 | 0.00 | 0.00 | 86 | 1020.9 |
| 20260905122558 | 3 | 0 | 0.0 | 1.6 | 0.00 | 0.00 | 0.00 | 83 | 1021.0 |
| 20260905122100 | 3 | 0 | 0.0 | 1.6 | 0.00 | 0.00 | 0.00 | 80 | 1021.0 |
| 20260905121605 | 3 | 243 | 0.0 | 1.6 | 0.00 | 0.00 | 0.00 | 82 | 1020.9 |
| 20260905121058 | 4 | 171 | 0.0 | 1.6 | 0.00 | 0.00 | 0.00 | 81 | 1020.9 |
| 20260905120602 | 4 | 0 | 0.0 | 1.6 | 0.00 | 0.00 | 0.00 | 80 | 1020.9 |
| 20260905120107 | 4 | 0 | 0.0 | 3.2 | 0.00 | 0.00 | 0.00 | 81 | 1021.0 |
| 20260905115558 | 4 | 216 | 0.0 | 3.2 | 0.00 | 0.00 | 0.00 | 81 | 1020.8 |
| 20260905115058 | 5 | 170 | 0.0 | 3.2 | 0.00 | 0.00 | 0.00 | 78 | 1021.0 |
| 20260905114602 | 5 | 0 | 0.0 | 4.8 | 0.00 | 0.00 | 0.00 | 79 | 1020.9 |
| 20260905114102 | 5 | 0 | 0.0 | 4.8 | 0.00 | 0.00 | 0.00 | 82 | 1021.0 |
| 20260905113558 | 5 | 170 | 0.0 | 4.8 | 0.00 | 0.00 | 0.00 | 80 | 1021.0 |
| 20260905113107 | 5 | 0 | 0.0 | 3.2 | 0.00 | 0.00 | 0.00 | 81 | 1020.9 |
| 20260905112558 | 5 | 169 | 0.0 | 4.8 | 0.00 | 0.00 | 0.00 | 82 | 1020.9 |
| 20260905112058 | 4 | 0 | 0.0 | 4.8 | 0.00 | 0.00 | 0.00 | 83 | 1020.9 |
| 20260905111646 | 4 | 158 | 0.0 | 4.8 | 0.00 | 0.00 | 0.00 | 82 | 1021.0 |
| 20260905111057 | 4 | 0 | 1.6 | 4.8 | 0.00 | 0.00 | 0.00 | 81 | 1020.9 |
| 20260905110558 | 4 | 0 | 0.0 | 3.2 | 0.00 | 0.00 | 0.00 | 80 | 1021.0 |
| 20260905105557 | 5 | 0 | 0.0 | 3.2 | 0.00 | 0.00 | 0.00 | 82 | 1021.0 |
| 20260905105059 | 5 | 0 | 0.0 | 4.8 | 0.00 | 0.00 | 0.00 | 82 | 1020.9 |
| 20260905104608 | 5 | 0 | 0.0 | 4.8 | 0.00 | 0.00 | 0.00 | 83 | 1021.1 |
| 20260905104058 | 5 | 0 | 1.6 | 4.8 | 0.00 | 0.00 | 0.00 | 81 | 1020.9 |
| 20260905103559 | 5 | 240 | 0.0 | 4.8 | 0.00 | 0.00 | 0.00 | 82 | 1021.0 |
| 20260905103104 | 5 | 188 | 0.0 | 3.2 | 0.00 | 0.00 | 0.00 | 82 | 1021.0 |
| 20260905102558 | 5 | 155 | 0.0 | 4.8 | 0.00 | 0.00 | 0.00 | 83 | 1021.0 |
| 20260905102058 | 5 | 0 | 0.0 | 4.8 | 0.00 | 0.00 | 0.00 | 80 | 1021.1 |
| 20260905101607 | 5 | 0 | 0.0 | 3.2 | 0.00 | 0.00 | 0.00 | 82 | 1021.1 |
| 20260905101058 | 5 | 0 | 0.0 | 3.2 | 0.00 | 0.00 | 0.00 | 82 | 1021.1 |
| 20260905100558 | 5 | 169 | 0.0 | 3.2 | 0.00 | 0.00 | 0.00 | 82 | 1021.2 |
| 20260905100114 | 5 | 0 | 1.6 | 3.2 | 0.00 | 0.00 | 0.00 | 81 | 1021.2 |
| 20260905095557 | 5 | 210 | 0.0 | 4.8 | 0.00 | 0.00 | 0.00 | 83 | 1021.3 |
| 20260905095058 | 5 | 0 | 1.6 | 4.8 | 0.00 | 0.00 | 0.00 | 80 | 1021.1 |
| 20260905094607 | 5 | 0 | 0.0 | 3.2 | 0.00 | 0.00 | 0.00 | 81 | 1021.3 |
| 20260905094100 | 5 | 0 | 0.0 | 3.2 | 0.00 | 0.00 | 0.00 | 79 | 1021.1 |
| 20260905093558 | 5 | 0 | 0.0 | 4.8 | 0.00 | 0.00 | 0.00 | 82 | 1021.1 |
| 20260905093107 | 5 | 185 | 1.6 | 4.8 | 0.00 | 0.00 | 0.00 | 81 | 1021.1 |
| 20260905092600 | 5 | 208 | 0.0 | 1.6 | 0.00 | 0.00 | 0.00 | 80 | 1021.1 |
| 20260905092102 | 5 | 0 | 0.0 | 1.6 | 0.00 | 0.00 | 0.00 | 83 | 1021.1 |
| 20260905091606 | 5 | 0 | 0.0 | 3.2 | 0.00 | 0.00 | 0.00 | 82 | 1021.3 |
| 20260905091057 | 5 | 0 | 0.0 | 3.2 | 0.00 | 0.00 | 0.00 | 82 | 1021.2 |
| 20260905090603 | 5 | 0 | 0.0 | 3.2 | 0.00 | 0.00 | 0.00 | 80 | 1021.3 |
| 20260905090105 | 5 | 0 | 0.0 | 3.2 | 0.00 | 0.00 | 0.00 | 79 | 1021.2 |
| 20260905085601 | 6 | 233 | 0.0 | 3.2 | 0.00 | 0.00 | 0.00 | 81 | 1021.3 |
| 20260905085057 | 6 | 0 | 1.6 | 3.2 | 0.00 | 0.00 | 0.00 | 81 | 1021.3 |
| 20260905084607 | 5 | 0 | 0.0 | 3.2 | 0.00 | 0.00 | 0.00 | 80 | 1021.2 |
| 20260905084058 | 5 | 0 | 0.0 | 1.6 | 0.00 | 0.00 | 0.00 | 80 | 1021.3 |
| 20260905083602 | 6 | 0 | 0.0 | 0.0 | 0.00 | 0.00 | 0.00 | 79 | 1021.3 |
| 20260905083106 | 6 | 0 | 0.0 | 3.2 | 0.00 | 0.00 | 0.00 | 80 | 1021.3 |
| 20260905082558 | 5 | 0 | 0.0 | 3.2 | 0.00 | 0.00 | 0.00 | 79 | 1021.3 |
| 20260905082058 | 6 | 0 | 0.0 | 3.2 | 0.00 | 0.00 | 0.00 | 79 | 1021.3 |
| 20260905081601 | 6 | 0 | 0.0 | 3.2 | 0.00 | 0.00 | 0.00 | 77 | 1021.3 |
| 20260905081058 | 6 | 181 | 0.0 | 1.6 | 0.00 | 0.00 | 0.00 | 80 | 1021.3 |
| 20260905080601 | 6 | 198 | 0.0 | 0.0 | 0.00 | 0.00 | 0.00 | 76 | 1021.4 |
| 20260905080129 | 6 | 0 | 0.0 | 1.6 | 0.00 | 0.00 | 0.00 | 78 | 1021.4 |
| 20260905075558 | 6 | 0 | 0.0 | 1.6 | 0.00 | 0.00 | 0.00 | 78 | 1021.3 |
| 20260905075057 | 6 | 170 | 0.0 | 1.6 | 0.00 | 0.00 | 0.00 | 77 | 1021.4 |
| 20260905074605 | 6 | 0 | 0.0 | 3.2 | 0.00 | 0.00 | 0.00 | 78 | 1021.4 |
| 20260905074059 | 6 | 0 | 0.0 | 3.2 | 0.00 | 0.00 | 0.00 | 77 | 1021.3 |
| 20260905073558 | 6 | 233 | 0.0 | 1.6 | 0.00 | 0.00 | 0.00 | 79 | 1021.3 |
| 20260905073104 | 6 | 0 | 0.0 | 0.0 | 0.00 | 0.00 | 0.00 | 79 | 1021.3 |
| 20260905072558 | 6 | 0 | 0.0 | 1.6 | 0.00 | 0.00 | 0.00 | 76 | 1021.3 |
| 20260905072101 | 6 | 0 | 0.0 | 1.6 | 0.00 | 0.00 | 0.00 | 78 | 1021.2 |
| 20260905071604 | 6 | 0 | 0.0 | 0.0 | 0.00 | 0.00 | 0.00 | 76 | 1021.3 |
| 20260905071102 | 7 | 0 | 0.0 | 0.0 | 0.00 | 0.00 | 0.00 | 75 | 1021.2 |
| 20260905070558 | 7 | 0 | 0.0 | 1.6 | 0.00 | 0.00 | 0.00 | 77 | 1021.2 |
| 20260905070110 | 7 | 0 | 0.0 | 6.4 | 0.00 | 0.00 | 0.00 | 76 | 1021.1 |
| 20260905065558 | 7 | 236 | 0.0 | 6.4 | 0.00 | 0.00 | 0.00 | 73 | 1021.1 |
| 20260905065058 | 7 | 226 | 1.6 | 4.8 | 0.00 | 0.00 | 0.00 | 76 | 1020.9 |
| 20260905064606 | 7 | 0 | 0.0 | 0.0 | 0.00 | 0.00 | 0.00 | 74 | 1021.1 |
| 20260905064059 | 8 | 0 | 0.0 | 0.0 | 0.00 | 0.00 | 0.00 | 74 | 1020.9 |
| 20260905063559 | 8 | 218 | 0.0 | 0.0 | 0.00 | 0.00 | 0.00 | 74 | 1020.9 |
| 20260905063128 | 8 | 0 | 0.0 | 0.0 | 0.00 | 0.00 | 0.00 | 75 | 1020.9 |
| 20260905062558 | 8 | 0 | 0.0 | 1.6 | 0.00 | 0.00 | 0.00 | 75 | 1020.8 |
| 20260905062058 | 8 | 0 | 0.0 | 4.8 | 0.00 | 0.00 | 0.00 | 74 | 1020.8 |
| 20260905061615 | 8 | 0 | 0.0 | 4.8 | 0.00 | 0.00 | 0.00 | 74 | 1020.8 |
| 20260905061100 | 8 | 126 | 3.2 | 4.8 | 0.00 | 0.00 | 0.00 | 73 | 1020.8 |
| 20260905060558 | 9 | 0 | 0.0 | 3.2 | 0.00 | 0.00 | 0.00 | 73 | 1020.8 |
| 20260905060108 | 8 | 114 | 1.6 | 3.2 | 0.00 | 0.00 | 0.00 | 74 | 1020.8 |
| 20260905055601 | 8 | 151 | 0.0 | 1.6 | 0.00 | 0.00 | 0.00 | 73 | 1020.7 |
| 20260905055100 | 8 | 0 | 0.0 | 1.6 | 0.00 | 0.00 | 0.00 | 73 | 1020.6 |
| 20260905054608 | 9 | 0 | 0.0 | 1.6 | 0.00 | 0.00 | 0.00 | 72 | 1020.5 |
| 20260905054058 | 9 | 231 | 0.0 | 4.8 | 0.00 | 0.00 | 0.00 | 71 | 1020.5 |
| 20260905053559 | 10 | 0 | 0.0 | 4.8 | 0.00 | 0.00 | 0.00 | 70 | 1020.5 |
| 20260905053111 | 10 | 71 | 1.6 | 4.8 | 0.00 | 0.00 | 0.00 | 71 | 1020.5 |
| 20260905052558 | 10 | 136 | 0.0 | 6.4 | 0.00 | 0.00 | 0.00 | 69 | 1020.5 |
| 20260905052101 | 10 | 107 | 3.2 | 6.4 | 0.00 | 0.00 | 0.00 | 69 | 1020.6 |
| 20260905051601 | 10 | 101 | 3.2 | 8.0 | 0.00 | 0.00 | 0.00 | 70 | 1020.4 |
| 20260905051058 | 10 | 85 | 4.8 | 8.0 | 0.00 | 0.00 | 0.00 | 71 | 1020.3 |
| 20260905050558 | 10 | 96 | 3.2 | 4.8 | 0.00 | 0.00 | 0.00 | 71 | 1020.4 |
| 20260905050111 | 10 | 148 | 0.0 | 1.6 | 0.00 | 0.00 | 0.00 | 69 | 1020.3 |
| 20260905045558 | 10 | 184 | 0.0 | 3.2 | 0.00 | 0.00 | 0.00 | 68 | 1020.4 |
| 20260905045058 | 10 | 89 | 0.0 | 4.8 | 0.00 | 0.00 | 0.00 | 68 | 1020.2 |
| 20260905044608 | 10 | 148 | 0.0 | 4.8 | 0.00 | 0.00 | 0.00 | 68 | 1020.2 |
| 20260905044058 | 10 | 113 | 1.6 | 4.8 | 0.00 | 0.00 | 0.00 | 67 | 1020.1 |
| 20260905043558 | 10 | 79 | 1.6 | 4.8 | 0.00 | 0.00 | 0.00 | 68 | 1020.1 |
| 20260905043102 | 10 | 130 | 1.6 | 9.7 | 0.00 | 0.00 | 0.00 | 68 | 1020.0 |
| 20260905042559 | 10 | 128 | 4.8 | 9.7 | 0.00 | 0.00 | 0.00 | 69 | 1019.9 |
| 20260905042058 | 10 | 134 | 1.6 | 4.8 | 0.00 | 0.00 | 0.00 | 67 | 1019.8 |
| 20260905041607 | 10 | 115 | 3.2 | 4.8 | 0.00 | 0.00 | 0.00 | 66 | 1020.0 |
| 20260905041059 | 10 | 170 | 0.0 | 4.8 | 0.00 | 0.00 | 0.00 | 65 | 1019.9 |
| 20260905040558 | 11 | 0 | 0.0 | 1.6 | 0.00 | 0.00 | 0.00 | 66 | 1019.8 |
| 20260905040110 | 11 | 0 | 0.0 | 6.4 | 0.00 | 0.00 | 0.00 | 65 | 1019.9 |
| 20260905035602 | 11 | 0 | 0.0 | 8.0 | 0.00 | 0.00 | 0.00 | 63 | 1019.8 |
| 20260905035058 | 11 | 0 | 3.2 | 8.0 | 0.00 | 0.00 | 0.00 | 64 | 1019.9 |
| 20260905034619 | 12 | 0 | 3.2 | 8.0 | 0.00 | 0.00 | 0.00 | 64 | 1019.7 |
| 20260905034059 | 12 | 76 | 1.6 | 8.0 | 0.00 | 0.00 | 0.00 | 62 | 1019.7 |
| 20260905033558 | 12 | 95 | 6.4 | 8.0 | 0.00 | 0.00 | 0.00 | 63 | 1019.7 |
| 20260905033119 | 12 | 99 | 4.8 | 6.4 | 0.00 | 0.00 | 0.00 | 62 | 1019.8 |
| 20260905032559 | 12 | 92 | 1.6 | 6.4 | 0.00 | 0.00 | 0.00 | 61 | 1019.7 |
| 20260905032058 | 12 | 0 | 0.0 | 4.8 | 0.00 | 0.00 | 0.00 | 62 | 1019.7 |
| 20260905031615 | 12 | 0 | 1.6 | 4.8 | 0.00 | 0.00 | 0.00 | 62 | 1019.7 |
| 20260905031058 | 13 | 150 | 0.0 | 12.9 | 0.00 | 0.00 | 0.00 | 60 | 1019.7 |
| 20260905030558 | 13 | 0 | 1.6 | 14.5 | 0.00 | 0.00 | 0.00 | 58 | 1019.4 |
| 20260905030106 | 13 | 68 | 6.4 | 14.5 | 0.00 | 0.00 | 0.00 | 57 | 1019.4 |
| 20260905025559 | 13 | 80 | 4.8 | 14.5 | 0.00 | 0.00 | 0.00 | 58 | 1019.2 |
| 20260905025102 | 14 | 77 | 4.8 | 12.9 | 0.00 | 0.00 | 0.00 | 55 | 1019.0 |
| 20260905024605 | 15 | 30 | 3.2 | 12.9 | 0.00 | 0.00 | 0.00 | 51 | 1018.9 |
| 20260905024058 | 16 | 51 | 6.4 | 12.9 | 0.00 | 0.00 | 0.00 | 47 | 1018.8 |
| 20260905023558 | 17 | 49 | 0.0 | 8.0 | 0.00 | 0.00 | 0.00 | 26 | 1018.5 |
| 20260905023127 | 17 | 295 | 1.6 | 19.3 | 0.00 | 0.00 | 0.00 | 25 | 1018.5 |
| 20260905022558 | 17 | 133 | 6.4 | 19.3 | 0.00 | 0.00 | 0.00 | 24 | 1018.5 |
| 20260905022059 | 17 | 241 | 1.6 | 8.0 | 0.00 | 0.00 | 0.00 | 26 | 1018.6 |
| 20260905021605 | 17 | 0 | 4.8 | 11.3 | 0.00 | 0.00 | 0.00 | 26 | 1018.7 |
| 20260905021058 | 18 | 128 | 3.2 | 11.3 | 0.00 | 0.00 | 0.00 | 24 | 1018.6 |
| 20260905020558 | 17 | 134 | 3.2 | 14.5 | 0.00 | 0.00 | 0.00 | 25 | 1018.6 |
| 20260905020106 | 18 | 238 | 4.8 | 16.1 | 0.00 | 0.00 | 0.00 | 24 | 1018.5 |
| 20260905015558 | 18 | 165 | 6.4 | 17.7 | 0.00 | 0.00 | 0.00 | 25 | 1018.6 |
| 20260905015058 | 18 | 109 | 6.4 | 17.7 | 0.00 | 0.00 | 0.00 | 24 | 1018.5 |
| 20260905014606 | 18 | 104 | 8.0 | 17.7 | 0.00 | 0.00 | 0.00 | 23 | 1018.5 |
| 20260905014101 | 18 | 127 | 4.8 | 20.9 | 0.00 | 0.00 | 0.00 | 24 | 1018.6 |
| 20260905013557 | 18 | 0 | 1.6 | 20.9 | 0.00 | 0.00 | 0.00 | 23 | 1018.6 |
| 20260905013103 | 19 | 265 | 8.0 | 20.9 | 0.00 | 0.00 | 0.00 | 23 | 1018.6 |
| 20260905012558 | 19 | 165 | 4.8 | 11.3 | 0.00 | 0.00 | 0.00 | 24 | 1018.5 |
| 20260905012101 | 19 | 115 | 4.8 | 11.3 | 0.00 | 0.00 | 0.00 | 23 | 1018.4 |
| 20260905011606 | 20 | 79 | 0.0 | 12.9 | 0.00 | 0.00 | 0.00 | 22 | 1018.4 |
| 20260905011101 | 20 | 268 | 1.6 | 12.9 | 0.00 | 0.00 | 0.00 | 23 | 1018.3 |
| 20260905010559 | 20 | 144 | 6.4 | 12.9 | 0.00 | 0.00 | 0.00 | 23 | 1018.4 |
| 20260905010112 | 21 | 169 | 0.0 | 8.0 | 0.00 | 0.00 | 0.00 | 23 | 1018.4 |
| 20260905005558 | 21 | 0 | 1.6 | 11.3 | 0.00 | 0.00 | 0.00 | 25 | 1018.4 |
| 20260905005101 | 21 | 158 | 1.6 | 12.9 | 0.00 | 0.00 | 0.00 | 24 | 1018.2 |
| 20260905004633 | 21 | 150 | 3.2 | 16.1 | 0.00 | 0.00 | 0.00 | 22 | 1018.2 |
| 20260905004058 | 21 | 153 | 6.4 | 16.1 | 0.00 | 0.00 | 0.00 | 22 | 1018.3 |
| 20260905003600 | 21 | 207 | 3.2 | 14.5 | 0.00 | 0.00 | 0.00 | 23 | 1018.4 |
| 20260905003124 | 21 | 238 | 3.2 | 14.5 | 0.00 | 0.00 | 0.00 | 24 | 1018.3 |
| 20260905002558 | 21 | 257 | 1.6 | 29.0 | 0.00 | 0.00 | 0.00 | 22 | 1018.3 |
| 20260905002058 | 21 | 340 | 6.4 | 29.0 | 0.00 | 0.00 | 0.00 | 23 | 1018.4 |
| 20260905001605 | 21 | 153 | 9.7 | 29.0 | 0.00 | 0.00 | 0.00 | 22 | 1018.3 |
| 20260905001102 | 21 | 226 | 4.8 | 22.5 | 0.00 | 0.00 | 0.00 | 22 | 1018.3 |
| 20260905000558 | 21 | 188 | 3.2 | 17.7 | 0.00 | 0.00 | 0.00 | 23 | 1018.2 |
| 20260905000144 | 21 | 101 | 8.0 | 17.7 | 0.00 | 0.00 | 0.00 | 23 | 1018.3 |
| 20260904235558 | 21 | 219 | 3.2 | 19.3 | 0.00 | 0.00 | 0.00 | 23 | 1018.2 |
| 20260904235057 | 21 | 280 | 6.4 | 19.3 | 0.00 | 0.00 | 0.00 | 23 | 1018.2 |
| 20260904234607 | 21 | 214 | 8.0 | 20.9 | 0.00 | 0.00 | 0.00 | 24 | 1018.3 |
| 20260904234057 | 21 | 226 | 3.2 | 20.9 | 0.00 | 0.00 | 0.00 | 24 | 1018.1 |
| 20260904233602 | 21 | 148 | 6.4 | 20.9 | 0.00 | 0.00 | 0.00 | 25 | 1018.2 |
| 20260904233105 | 21 | 287 | 3.2 | 20.9 | 0.00 | 0.00 | 0.00 | 22 | 1018.1 |
| 20260904232558 | 21 | 221 | 6.4 | 22.5 | 0.00 | 0.00 | 0.00 | 25 | 1018.2 |
| 20260904232101 | 21 | 333 | 8.0 | 24.1 | 0.00 | 0.00 | 0.00 | 24 | 1018.1 |
| 20260904231606 | 21 | 169 | 6.4 | 24.1 | 0.00 | 0.00 | 0.00 | 24 | 1018.1 |
| 20260904231058 | 22 | 82 | 6.4 | 24.1 | 0.00 | 0.00 | 0.00 | 23 | 1018.2 |
| 20260904230558 | 22 | 177 | 6.4 | 22.5 | 0.00 | 0.00 | 0.00 | 26 | 1018.1 |
| 20260904230117 | 21 | 245 | 6.4 | 22.5 | 0.00 | 0.00 | 0.00 | 26 | 1018.0 |
| 20260904225557 | 22 | 71 | 8.0 | 17.7 | 0.00 | 0.00 | 0.00 | 26 | 1018.1 |
| 20260904225101 | 22 | 271 | 4.8 | 20.9 | 0.00 | 0.00 | 0.00 | 26 | 1018.2 |
| 20260904224605 | 22 | 279 | 8.0 | 20.9 | 0.00 | 0.00 | 0.00 | 26 | 1018.1 |
| 20260904224102 | 22 | 139 | 8.0 | 19.3 | 0.00 | 0.00 | 0.00 | 27 | 1018.1 |
| 20260904223601 | 22 | 149 | 6.4 | 19.3 | 0.00 | 0.00 | 0.00 | 26 | 1018.1 |
| 20260904223107 | 22 | 151 | 6.4 | 20.9 | 0.00 | 0.00 | 0.00 | 26 | 1018.2 |
| 20260904222601 | 22 | 155 | 8.0 | 20.9 | 0.00 | 0.00 | 0.00 | 25 | 1018.1 |
| 20260904222057 | 22 | 200 | 3.2 | 25.7 | 0.00 | 0.00 | 0.00 | 25 | 1018.0 |
| 20260904221608 | 22 | 235 | 9.7 | 25.7 | 0.00 | 0.00 | 0.00 | 24 | 1018.0 |
| 20260904221059 | 22 | 286 | 6.4 | 20.9 | 0.00 | 0.00 | 0.00 | 25 | 1018.0 |
| 20260904220559 | 22 | 244 | 4.8 | 20.9 | 0.00 | 0.00 | 0.00 | 25 | 1017.9 |
| 20260904220109 | 22 | 210 | 4.8 | 19.3 | 0.00 | 0.00 | 0.00 | 24 | 1018.0 |
| 20260904215600 | 23 | 172 | 6.4 | 19.3 | 0.00 | 0.00 | 0.00 | 25 | 1018.2 |
| 20260904215058 | 22 | 256 | 4.8 | 16.1 | 0.00 | 0.00 | 0.00 | 25 | 1018.1 |
| 20260904214607 | 22 | 89 | 6.4 | 16.1 | 0.00 | 0.00 | 0.00 | 26 | 1018.0 |
| 20260904214058 | 23 | 207 | 4.8 | 16.1 | 0.00 | 0.00 | 0.00 | 25 | 1018.1 |
| 20260904213558 | 22 | 86 | 4.8 | 20.9 | 0.00 | 0.00 | 0.00 | 24 | 1017.9 |
| 20260904213108 | 22 | 172 | 4.8 | 20.9 | 0.00 | 0.00 | 0.00 | 26 | 1018.2 |
| 20260904212558 | 22 | 307 | 9.7 | 38.6 | 0.00 | 0.00 | 0.00 | 25 | 1018.0 |
| 20260904212058 | 22 | 186 | 16.1 | 38.6 | 0.00 | 0.00 | 0.00 | 26 | 1018.0 |
| 20260904211613 | 23 | 175 | 11.3 | 20.9 | 0.00 | 0.00 | 0.00 | 25 | 1017.9 |
| 20260904211057 | 22 | 205 | 1.6 | 8.0 | 0.00 | 0.00 | 0.00 | 26 | 1017.9 |
| 20260904210559 | 22 | 250 | 3.2 | 8.0 | 0.00 | 0.00 | 0.00 | 26 | 1017.8 |
| 20260904210107 | 23 | 80 | 1.6 | 9.7 | 0.00 | 0.00 | 0.00 | 25 | 1017.7 |
| 20260904205558 | 23 | 285 | 3.2 | 11.3 | 0.00 | 0.00 | 0.00 | 25 | 1017.6 |
| 20260904205057 | 22 | 285 | 3.2 | 14.5 | 0.00 | 0.00 | 0.00 | 25 | 1017.6 |
| 20260904204604 | 22 | 325 | 6.4 | 14.5 | 0.00 | 0.00 | 0.00 | 25 | 1017.5 |
| 20260904204058 | 22 | 299 | 4.8 | 14.5 | 0.00 | 0.00 | 0.00 | 26 | 1017.6 |
| 20260904203558 | 21 | 64 | 3.2 | 12.9 | 0.00 | 0.00 | 0.00 | 27 | 1017.5 |
| 20260904203108 | 21 | 32 | 1.6 | 17.7 | 0.00 | 0.00 | 0.00 | 27 | 1017.6 |
| 20260904202557 | 20 | 348 | 3.2 | 20.9 | 0.00 | 0.00 | 0.00 | 26 | 1017.5 |
| 20260904202058 | 20 | 53 | 1.6 | 20.9 | 0.00 | 0.00 | 0.00 | 28 | 1017.5 |
| 20260904201633 | 20 | 60 | 8.0 | 19.3 | 0.00 | 0.00 | 0.00 | 27 | 1017.5 |
| 20260904201057 | 20 | 181 | 6.4 | 24.1 | 0.00 | 0.00 | 0.00 | 28 | 1017.5 |
| 20260904200558 | 20 | 21 | 9.7 | 24.1 | 0.00 | 0.00 | 0.00 | 28 | 1017.5 |
| 20260904200110 | 20 | 151 | 6.4 | 24.1 | 0.00 | 0.00 | 0.00 | 29 | 1017.6 |
| 20260904195602 | 20 | 51 | 11.3 | 24.1 | 0.00 | 0.00 | 0.00 | 28 | 1017.6 |
| 20260904195059 | 20 | 73 | 6.4 | 29.0 | 0.00 | 0.00 | 0.00 | 28 | 1017.6 |
| 20260904194606 | 20 | 42 | 9.7 | 29.0 | 0.00 | 0.00 | 0.00 | 28 | 1017.6 |
| 20260904194058 | 20 | 92 | 16.1 | 29.0 | 0.00 | 0.00 | 0.00 | 28 | 1017.7 |
| 20260904193558 | 20 | 67 | 9.7 | 24.1 | 0.00 | 0.00 | 0.00 | 29 | 1017.7 |
| 20260904193107 | 20 | 68 | 9.7 | 27.4 | 0.00 | 0.00 | 0.00 | 31 | 1017.7 |
| 20260904192558 | 19 | 53 | 9.7 | 27.4 | 0.00 | 0.00 | 0.00 | 29 | 1017.7 |
| 20260904192100 | 20 | 54 | 6.4 | 22.5 | 0.00 | 0.00 | 0.00 | 29 | 1017.8 |
| 20260904191603 | 19 | 311 | 8.0 | 25.7 | 0.00 | 0.00 | 0.00 | 30 | 1017.8 |
| 20260904191100 | 19 | 44 | 12.9 | 25.7 | 0.00 | 0.00 | 0.00 | 30 | 1017.7 |
| 20260904190602 | 19 | 44 | 8.0 | 29.0 | 0.00 | 0.00 | 0.00 | 30 | 1017.8 |
| 20260904190105 | 20 | 151 | 9.7 | 29.0 | 0.00 | 0.00 | 0.00 | 30 | 1017.7 |
| 20260904185601 | 20 | 154 | 8.0 | 24.1 | 0.00 | 0.00 | 0.00 | 31 | 1017.7 |
| 20260904185101 | 19 | 42 | 8.0 | 20.9 | 0.00 | 0.00 | 0.00 | 30 | 1017.9 |
| 20260904184620 | 19 | 27 | 9.7 | 20.9 | 0.00 | 0.00 | 0.00 | 30 | 1017.8 |
| 20260904184058 | 19 | 114 | 4.8 | 19.3 | 0.00 | 0.00 | 0.00 | 31 | 1017.9 |
| 20260904183601 | 18 | 162 | 9.7 | 20.9 | 0.00 | 0.00 | 0.00 | 32 | 1017.9 |
| 20260904183117 | 19 | 87 | 8.0 | 20.9 | 0.00 | 0.00 | 0.00 | 33 | 1017.9 |
| 20260904182558 | 20 | 146 | 4.8 | 17.7 | 0.00 | 0.00 | 0.00 | 31 | 1017.9 |
| 20260904182057 | 18 | 115 | 6.4 | 17.7 | 0.00 | 0.00 | 0.00 | 32 | 1017.9 |
| 20260904181606 | 18 | 335 | 6.4 | 16.1 | 0.00 | 0.00 | 0.00 | 32 | 1017.9 |
| 20260904181058 | 18 | 125 | 6.4 | 22.5 | 0.00 | 0.00 | 0.00 | 34 | 1017.9 |
| 20260904180558 | 18 | 163 | 9.7 | 22.5 | 0.00 | 0.00 | 0.00 | 34 | 1017.9 |
| 20260904180109 | 18 | 120 | 9.7 | 17.7 | 0.00 | 0.00 | 0.00 | 33 | 1018.1 |
| 20260904175557 | 19 | 80 | 1.6 | 8.0 | 0.00 | 0.00 | 0.00 | 35 | 1018.1 |
| 20260904175059 | 20 | 79 | 3.2 | 6.4 | 0.00 | 0.00 | 0.00 | 37 | 1018.0 |
| 20260904174605 | 20 | 321 | 1.6 | 4.8 | 0.00 | 0.00 | 0.00 | 36 | 1018.1 |
| 20260904174058 | 20 | 0 | 0.0 | 4.8 | 0.00 | 0.00 | 0.00 | 37 | 1018.1 |
| 20260904173557 | 19 | 310 | 0.0 | 4.8 | 0.00 | 0.00 | 0.00 | 37 | 1017.9 |
| 20260904173104 | 18 | 0 | 1.6 | 4.8 | 0.00 | 0.00 | 0.00 | 38 | 1017.9 |
| 20260904172558 | 18 | 314 | 1.6 | 4.8 | 0.00 | 0.00 | 0.00 | 39 | 1017.9 |
| 20260904172059 | 17 | 0 | 0.0 | 9.7 | 0.00 | 0.00 | 0.00 | 41 | 1018.0 |
| 20260904171616 | 17 | 138 | 0.0 | 9.7 | 0.00 | 0.00 | 0.00 | 40 | 1018.0 |
| 20260904171102 | 17 | 37 | 1.6 | 8.0 | 0.00 | 0.00 | 0.00 | 40 | 1018.1 |
| 20260904170558 | 16 | 12 | 1.6 | 8.0 | 0.00 | 0.00 | 0.00 | 43 | 1018.0 |
| 20260904170109 | 16 | 83 | 1.6 | 6.4 | 0.00 | 0.00 | 0.00 | 44 | 1018.1 |
| 20260904165600 | 16 | 45 | 1.6 | 6.4 | 0.00 | 0.00 | 0.00 | 44 | 1018.1 |
| 20260904165101 | 16 | 51 | 0.0 | 4.8 | 0.00 | 0.00 | 0.00 | 46 | 1018.2 |
| 20260904164634 | 15 | 0 | 1.6 | 4.8 | 0.00 | 0.00 | 0.00 | 45 | 1018.2 |
| 20260904164058 | 15 | 103 | 1.6 | 6.4 | 0.00 | 0.00 | 0.00 | 45 | 1018.2 |
| 20260904163558 | 15 | 39 | 1.6 | 6.4 | 0.00 | 0.00 | 0.00 | 47 | 1018.2 |
| 20260904163103 | 15 | 174 | 3.2 | 6.4 | 0.00 | 0.00 | 0.00 | 48 | 1018.3 |
| 20260904162557 | 15 | 87 | 1.6 | 4.8 | 0.00 | 0.00 | 0.00 | 47 | 1018.3 |
| 20260904162057 | 15 | 63 | 0.0 | 4.8 | 0.00 | 0.00 | 0.00 | 49 | 1018.3 |
| 20260904161605 | 14 | 117 | 1.6 | 3.2 | 0.00 | 0.00 | 0.00 | 49 | 1018.3 |
| 20260904161057 | 13 | 104 | 0.0 | 4.8 | 0.00 | 0.00 | 0.00 | 50 | 1018.3 |
| 20260904160558 | 13 | 80 | 1.6 | 6.4 | 0.00 | 0.00 | 0.00 | 51 | 1018.5 |
| 20260904160112 | 13 | 115 | 3.2 | 6.4 | 0.00 | 0.00 | 0.00 | 52 | 1018.4 |
| 20260904155558 | 14 | 71 | 0.0 | 6.4 | 0.00 | 0.00 | 0.00 | 52 | 1018.5 |
| 20260904155057 | 13 | 0 | 1.6 | 6.4 | 0.00 | 0.00 | 0.00 | 52 | 1018.5 |
| 20260904154605 | 13 | 71 | 0.0 | 3.2 | 0.00 | 0.00 | 0.00 | 53 | 1018.6 |
| 20260904154057 | 13 | 0 | 0.0 | 6.4 | 0.00 | 0.00 | 0.00 | 56 | 1018.6 |
| 20260904153558 | 12 | 59 | 1.6 | 6.4 | 0.00 | 0.00 | 0.00 | 57 | 1018.5 |
| 20260904153113 | 12 | 127 | 1.6 | 3.2 | 0.00 | 0.00 | 0.00 | 58 | 1018.5 |
| 20260904152558 | 12 | 49 | 0.0 | 4.8 | 0.00 | 0.00 | 0.00 | 58 | 1018.5 |
| 20260904152057 | 12 | 94 | 1.6 | 4.8 | 0.00 | 0.00 | 0.00 | 59 | 1018.6 |
| 20260904151604 | 11 | 58 | 0.0 | 3.2 | 0.00 | 0.00 | 0.00 | 60 | 1018.6 |
| 20260904151057 | 11 | 58 | 1.6 | 3.2 | 0.00 | 0.00 | 0.00 | 61 | 1018.5 |
| 20260904150558 | 11 | 0 | 0.0 | 3.2 | 0.00 | 0.00 | 0.00 | 63 | 1018.6 |
| 20260904150107 | 10 | 67 | 1.6 | 4.8 | 0.00 | 0.00 | 0.00 | 63 | 1018.5 |
| 20260904145558 | 10 | 0 | 1.6 | 4.8 | 0.00 | 0.00 | 0.00 | 63 | 1018.4 |
| 20260904145059 | 10 | 56 | 0.0 | 1.6 | 0.00 | 0.00 | 0.00 | 64 | 1018.4 |
| 20260904144619 | 10 | 0 | 0.0 | 8.0 | 0.00 | 0.00 | 0.00 | 66 | 1018.5 |
| 20260904144058 | 8 | 0 | 1.6 | 8.0 | 0.00 | 0.00 | 0.00 | 67 | 1018.4 |